Location: Caracas
(10.5033°N, 66.8422°W)
Time: 07:39:01
(UTC-04:00)

Hubble Space Telescope - Pass Details

Date: 16 November 2017
Orbit: 537 x 541 km, 28.5° (Epoch: 19 November)

Event Time Altitude Azimuth Distance (km) Brightness Sun altitude
Exits shadow 05:47:18 10° 312° (NW) 1,797 2.9 -9.2°
Reaches altitude 10° 05:47:25 10° 313° (NW) 1,775 2.9 -9.2°
Maximum altitude 05:49:25 13° 342° (NNW) 1,581 2.8 -8.7°
Drops below altitude 10° 05:51:24 10° 12° (NNE) 1,775 3.4 -8.2°
Sets 05:54:44 0° 40° (NE) 2,666 4.6 -7.4°
